• In Germany
  • List of Countries
  • For 7 days
  • Water Temperature
  • Satellite Maps
  • Weather Map
  • Weather Widgets
  • user-avatar
    Login

    Hourly Weather Melbourne

    Today, 18 August, Friday

    Time Temperature Precipitation Wind Pressure Humidity
    00:00 +7°C° 0 mm 6 mps 751 mmHg 81%
    01:00 +5°C° 0 mm 6 mps 751 mmHg 80%
    02:00 +5°C° 0 mm 6 mps 752 mmHg 79%
    03:00 +5°C° 0 mm 6 mps 752 mmHg 78%
    04:00 +5°C° 0 mm 6 mps 752 mmHg 77%
    05:00 +5°C° 0 mm 6 mps 752 mmHg 77%
    06:00 +5°C° 0 mm 6 mps 753 mmHg 77%
    07:00 +5°C° 0 mm 6 mps 753 mmHg 77%
    08:00 +6°C° 0.1 mm 7 mps 754 mmHg 73%
    09:00 +8°C° 0.1 mm 7 mps 754 mmHg 70%
    10:00 +9°C° 0.1 mm 8 mps 755 mmHg 66%
    11:00 +10°C° 0.4 mm 8 mps 755 mmHg 68%
    12:00 +10°C° 0.4 mm 8 mps 756 mmHg 69%
    13:00 +10°C° 0.4 mm 8 mps 756 mmHg 71%
    14:00 +9°C° 0.5 mm 7 mps 757 mmHg 74%
    15:00 +9°C° 0.5 mm 7 mps 757 mmHg 77%
    16:00 +9°C° 0.5 mm 7 mps 758 mmHg 79%
    17:00 +8°C° 0.5 mm 6 mps 759 mmHg 83%
    18:00 +7°C° 0.5 mm 6 mps 760 mmHg 86%
    19:00 +6°C° 0.5 mm 5 mps 761 mmHg 89%
    20:00 +6°C° 0.3 mm 5 mps 762 mmHg 89%
    21:00 +5°C° 0.3 mm 5 mps 762 mmHg 88%
    22:00 +5°C° 0.3 mm 5 mps 763 mmHg 88%
    23:00 +5°C° 0.2 mm 4 mps 764 mmHg 88%

    Tomorrow, 19 August, Saturday

    Time Temperature Precipitation Wind Pressure Humidity
    00:00 +5°C° 0.2 mm 4 mps 764 mmHg 88%
    01:00 +5°C° 0.2 mm 4 mps 765 mmHg 89%
    02:00 +5°C° 0.1 mm 4 mps 765 mmHg 89%
    03:00 +4°C° 0.1 mm 4 mps 765 mmHg 89%
    04:00 +4°C° 0.1 mm 3 mps 766 mmHg 90%
    05:00 +4°C° 0.1 mm 3 mps 766 mmHg 90%
    06:00 +4°C° 0.1 mm 3 mps 767 mmHg 91%
    07:00 +4°C° 0.1 mm 3 mps 767 mmHg 91%
    08:00 +5°C° 0.2 mm 4 mps 768 mmHg 86%
    09:00 +6°C° 0.2 mm 4 mps 768 mmHg 82%
    10:00 +8°C° 0.2 mm 4 mps 769 mmHg 77%
    11:00 +8°C° 0.2 mm 4 mps 769 mmHg 72%
    12:00 +10°C° 0.2 mm 4 mps 769 mmHg 67%
    13:00 +11°C° 0.2 mm 4 mps 768 mmHg 62%
    14:00 +11°C° 0.1 mm 4 mps 768 mmHg 60%
    15:00 +11°C° 0.1 mm 3 mps 768 mmHg 58%
    16:00 +11°C° 0.1 mm 3 mps 768 mmHg 56%
    17:00 +9°C° 0.1 mm 3 mps 769 mmHg 64%
    18:00 +8°C° 0.1 mm 2 mps 769 mmHg 73%
    19:00 +6°C° 0.1 mm 2 mps 769 mmHg 81%
    20:00 +6°C° 0.1 mm 2 mps 770 mmHg 83%
    21:00 +6°C° 0.1 mm 2 mps 770 mmHg 85%
    22:00 +5°C° 0.1 mm 2 mps 770 mmHg 87%
    23:00 +5°C° 0 mm 2 mps 770 mmHg 88%

    Day after tomorrow, 20 August, Sunday

    Time Temperature Precipitation Wind Pressure Humidity
    00:00 +5°C° 0 mm 2 mps 770 mmHg 89%
    01:00 +4°C° 0 mm 2 mps 770 mmHg 90%
    02:00 +4°C° 0 mm 2 mps 769 mmHg 90%
    03:00 +4°C° 0 mm 2 mps 769 mmHg 90%
    04:00 +4°C° 0 mm 2 mps 769 mmHg 90%
    05:00 +3°C° 0 mm 2 mps 769 mmHg 90%
    06:00 +3°C° 0 mm 2 mps 769 mmHg 90%
    07:00 +3°C° 0 mm 2 mps 769 mmHg 90%
    08:00 +5°C° 0 mm 2 mps 769 mmHg 81%
    09:00 +9°C° 0 mm 1 mps 769 mmHg 72%
    10:00 +11°C° 0 mm 1 mps 769 mmHg 63%
    11:00 +12°C° 0 mm 1 mps 768 mmHg 57%
    12:00 +13°C° 0 mm 1 mps 767 mmHg 51%
    13:00 +15°C° 0 mm 1 mps 766 mmHg 45%
    14:00 +15°C° 0 mm 1 mps 766 mmHg 46%
    15:00 +14°C° 0 mm 1 mps 765 mmHg 47%
    16:00 +14°C° 0 mm 1 mps 764 mmHg 49%
    17:00 +12°C° 0 mm 2 mps 764 mmHg 55%
    18:00 +10°C° 0 mm 2 mps 764 mmHg 62%
    19:00 +8°C° 0 mm 2 mps 764 mmHg 69%
    20:00 +8°C° 0 mm 2 mps 763 mmHg 71%
    21:00 +7°C° 0 mm 3 mps 763 mmHg 72%
    22:00 +7°C° 0 mm 3 mps 762 mmHg 74%
    23:00 +7°C° 0 mm 3 mps 762 mmHg 72%

    21 August, Monday

    Time Temperature Precipitation Wind Pressure Humidity
    00:00 +6°C° 0 mm 4 mps 761 mmHg 71%
    01:00 +6°C° 0 mm 4 mps 761 mmHg 69%
    02:00 +6°C° 0.1 mm 4 mps 760 mmHg 73%
    03:00 +6°C° 0.1 mm 5 mps 759 mmHg 76%
    04:00 +6°C° 0.1 mm 5 mps 758 mmHg 80%
    05:00 +4°C° 0.4 mm 6 mps 758 mmHg 83%
    06:00 +4°C° 0.4 mm 6 mps 758 mmHg 86%
    07:00 +4°C° 0.4 mm 7 mps 757 mmHg 89%
    08:00 +5°C° 0.1 mm 7 mps 756 mmHg 84%
    09:00 +5°C° 0.1 mm 8 mps 756 mmHg 80%
    10:00 +6°C° 0.1 mm 8 mps 755 mmHg 75%
    11:00 +6°C° 0.5 mm 8 mps 754 mmHg 80%
    12:00 +6°C° 0.5 mm 8 mps 753 mmHg 84%
    13:00 +6°C° 0.5 mm 8 mps 752 mmHg 88%
    14:00 +6°C° 0.3 mm 7 mps 752 mmHg 89%
    15:00 +7°C° 0.3 mm 6 mps 752 mmHg 90%
    16:00 +7°C° 0.3 mm 4 mps 752 mmHg 90%
    17:00 +7°C° 0.1 mm 4 mps 752 mmHg 91%
    18:00 +8°C° 0.1 mm 3 mps 753 mmHg 93%
    19:00 +7°C° 0.1 mm 2 mps 754 mmHg 94%
    20:00 +7°C° 0 mm 2 mps 755 mmHg 94%
    21:00 +8°C° 0 mm 2 mps 756 mmHg 94%
    22:00 +8°C° 0 mm 3 mps 757 mmHg 94%
    23:00 +8°C° 0 mm 3 mps 757 mmHg 94%

    22 August, Tuesday

    Time Temperature Precipitation Wind Pressure Humidity
    00:00 +8°C° 0 mm 3 mps 757 mmHg 94%
    01:00 +9°C° 0 mm 3 mps 758 mmHg 94%
    02:00 +8°C° 0.1 mm 3 mps 758 mmHg 94%
    03:00 +8°C° 0.1 mm 3 mps 758 mmHg 94%
    04:00 +8°C° 0.1 mm 3 mps 759 mmHg 95%
    05:00 +8°C° 0 mm 3 mps 759 mmHg 95%
    06:00 +7°C° 0 mm 3 mps 760 mmHg 95%
    07:00 +7°C° 0 mm 2 mps 761 mmHg 95%
    08:00 +8°C° 0 mm 2 mps 761 mmHg 90%
    09:00 +10°C° 0 mm 2 mps 761 mmHg 85%
    10:00 +12°C° 0 mm 2 mps 761 mmHg 80%
    11:00 +12°C° 0 mm 3 mps 761 mmHg 73%
    12:00 +14°C° 0 mm 3 mps 760 mmHg 66%
    13:00 +15°C° 0 mm 4 mps 760 mmHg 58%
    14:00 +14°C° 0 mm 4 mps 759 mmHg 63%
    15:00 +14°C° 0 mm 4 mps 759 mmHg 67%
    16:00 +13°C° 0 mm 5 mps 759 mmHg 71%
    17:00 +13°C° 0 mm 5 mps 759 mmHg 73%
    18:00 +12°C° 0 mm 5 mps 759 mmHg 76%
    19:00 +12°C° 0 mm 5 mps 760 mmHg 78%
    20:00 +12°C° 0.1 mm 5 mps 759 mmHg 80%
    21:00 +10°C° 0.1 mm 6 mps 759 mmHg 81%
    22:00 +10°C° 0.1 mm 6 mps 759 mmHg 83%
    23:00 +10°C° 0.5 mm 6 mps 759 mmHg 86%

    23 August, Wednesday

    Time Temperature Precipitation Wind Pressure Humidity
    00:00 +10°C° 0.5 mm 6 mps 759 mmHg 89%
    01:00 +10°C° 0.5 mm 6 mps 758 mmHg 92%
    02:00 +9°C° 0.6 mm 6 mps 759 mmHg 91%
    03:00 +8°C° 0.6 mm 6 mps 760 mmHg 90%
    04:00 +7°C° 0.6 mm 5 mps 760 mmHg 90%
    05:00 +7°C° 0.3 mm 5 mps 761 mmHg 90%
    06:00 +6°C° 0.3 mm 5 mps 762 mmHg 90%
    07:00 +6°C° 0.3 mm 5 mps 764 mmHg 90%
    08:00 +6°C° 0.1 mm 5 mps 764 mmHg 83%
    09:00 +7°C° 0.1 mm 6 mps 765 mmHg 77%
    10:00 +8°C° 0.1 mm 6 mps 766 mmHg 70%
    11:00 +9°C° 0 mm 5 mps 766 mmHg 63%
    12:00 +10°C° 0 mm 5 mps 767 mmHg 57%
    13:00 +12°C° 0 mm 5 mps 767 mmHg 50%
    14:00 +12°C° 0 mm 5 mps 767 mmHg 51%
    15:00 +11°C° 0 mm 4 mps 767 mmHg 53%
    16:00 +11°C° 0 mm 4 mps 768 mmHg 54%
    17:00 +10°C° 0 mm 3 mps 768 mmHg 61%
    18:00 +8°C° 0 mm 3 mps 769 mmHg 68%
    19:00 +7°C° 0 mm 2 mps 770 mmHg 75%
    20:00 +6°C° 0 mm 2 mps 770 mmHg 78%
    21:00 +6°C° 0 mm 2 mps 770 mmHg 82%
    22:00 +6°C° 0 mm 1 mps 771 mmHg 85%
    23:00 +6°C° 0 mm 1 mps 771 mmHg 87%
    Show more